Regional Weather Roundup
Issued by NWS

Home | Current Version | Previous Version | Text Only | Print | Product List | Glossary On
Versions: 1 2 3 4 5 6 7 8 9 10 11 12 13 14 15 16 17 18 19 20 21 22 23 24 25 26 27 28 29 30 31 32 33 34 35 36 37 38 39 40 41 42 43 44 45 46 47 48 49
000
ASUS46 KPQR 192210
RWROR

OREGON REGIONAL WEATHER ROUNDUP
NATIONAL WEATHER SERVICE PORTLAND OR
200 PM PST FRI DEC 19 2014

NOTE: "FAIR" INDICATES FEW OR NO CLOUDS BELOW 12,000 FEET WITH
NO SIGNIFICANT WEATHER AND/OR OBSTRUCTIONS TO VISIBILITY.

ORZ001>013-192300-
NORTHWEST OREGON


CITY           SKY/WX    TMP DP  RH WIND       PRES   REMARKS
ASTORIA        PTSUNNY   51  44  77 SE12      29.93F
NEWPORT        MOSUNNY   52  48  87 SE7       30.00F
PORTLAND       PTSUNNY   53  44  71 S12       30.01F
VANCOUVER WA   CLOUDY    52  42  69 S6        30.00F
SCAPPOOSE      CLOUDY    50  43  77 S6        29.99F
HILLSBORO      CLOUDY    50  44  80 S13       29.99F
AURORA         CLOUDY    50  43  77 S13       30.01F
MCMINNVILLE    LGT RAIN  51  44  77 S10       30.01F
SALEM          CLOUDY    52  44  74 S9        30.00F
CORVALLIS      CLOUDY    52  45  76 SW6       30.02F
EUGENE         CLOUDY    53  43  68 S15       30.01F
$$

ORZ021-028-192300-
SOUTHWEST OREGON


CITY           SKY/WX    TMP DP  RH WIND       PRES   REMARKS
NORTH BEND     PTSUNNY   52  48  87 S6        30.01F
BROOKINGS      PTSUNNY   55  52  90 S6        30.06F FOG
ROSEBURG       LGT RAIN  53  46  77 S3        30.03F
SEXTON SUMMIT  FOG       37  37 100 S12G17    29.99F VSB<1/4 WCI  29
MEDFORD        CLOUDY    49  44  83 NW6       30.06S
$$

ORZ014>016-041-192300-
COLUMBIA GORGE


CITY           SKY/WX    TMP DP  RH WIND       PRES   REMARKS
TROUTDALE      PTSUNNY   54  42  64 SW8       30.00F
THE DALLES     SUNNY     50  41  71 CALM      30.00F
$$

ORZ029>031-041-044-049-050-061>064-502-503-505>511-192300-
EASTERN OREGON


CITY           SKY/WX    TMP DP  RH WIND       PRES   REMARKS
REDMOND        MOSUNNY   44  34  67 E5        29.97S
BEND           MOSUNNY   45  28  53 SW17G23   29.97F
PRINEVILLE     MOSUNNY   45  34  65 NW5       29.98S
KLAMATH FALLS  PTSUNNY   44  36  73 W7        30.02S
LAKEVIEW       CLOUDY    39  34  81 SW13      30.04R WCI  32
HERMISTON      MOSUNNY   51  39  63 W14       29.99R
PENDLETON      MOSUNNY   47  40  76 W5        29.98R
JOHN DAY       CLOUDY    43  37  80 SW8       29.98R
MEACHAM        CLOUDY    37  34  89 CALM      29.96R
LA GRANDE      CLOUDY    39  32  75 S6        29.98F WCI  35
BAKER CITY     CLOUDY    42  36  79 W9        29.98R
BURNS          CLOUDY    40  36  86 SW6       30.00F
ROME             N/A     44  35  70 SE14      30.00S
ONTARIO        PTSUNNY   44  40  85 N3        30.06R
$$


USA.gov is the U.S. government's official web portal to all federal, state and local government web resources and services.